EIN159 EGLL-EIDW

Flight info

Callsign EIN159
Flight time N/A
Altitude 24000
Route CPT L9 DIDZA N14 BIBPE/N0427F340 DCT OKTAD DCT MEDOG DCT KRAGY DCT PEMOB DCT LEMGU M17 VATRY VATRY3R
Aircraft A320/M-SDE3FGHIRWY/LB1

Departure

Time 2026-05-04 11:57
Airport London Heathrow Airport (EGLL)

Arrival

Time N/A
Airport Dublin Airport (EIDW)
Time Latitude Longitude Altitude Speed Heading
2026-05-04 11:29 51.46830 -0.44979 86 ft 0 kts 359°
2026-05-04 11:50 51.46826 -0.44979 86 ft 2 kts 359°
2026-05-04 11:50 51.46807 -0.44978 88 ft 3 kts 358°
2026-05-04 11:50 51.46787 -0.44977 86 ft 3 kts
2026-05-04 11:50 51.46767 -0.44979 86 ft 3 kts 15°
2026-05-04 11:51 51.46753 -0.44989 88 ft 3 kts 67°
2026-05-04 11:51 51.46751 -0.44997 87 ft 0 kts 90°
2026-05-04 11:53 51.46751 -0.44978 89 ft 4 kts 89°
2026-05-04 11:55 51.46667 -0.43846 86 ft 8 kts 89°
2026-05-04 11:55 51.46667 -0.43765 86 ft 6 kts 89°
2026-05-04 11:56 51.46668 -0.43714 86 ft 4 kts 89°
2026-05-04 11:56 51.46645 -0.43614 86 ft 13 kts 141°
2026-05-04 11:56 51.46572 -0.43610 87 ft 9 kts 180°
2026-05-04 11:56 51.46517 -0.43613 79 ft 7 kts 194°
2026-05-04 11:57 51.46494 -0.43793 86 ft 40 kts 269°
2026-05-04 11:57 51.46492 -0.44661 89 ft 114 kts 269°
2026-05-04 11:57 51.46487 -0.46258 95 ft 170 kts 271°
2026-05-04 11:57 51.46485 -0.48183 702 ft 172 kts 270°
2026-05-04 11:58 51.46464 -0.50096 1469 ft 176 kts 271°
2026-05-04 11:58 51.46439 -0.52195 1989 ft 199 kts 270°
2026-05-04 11:58 51.46407 -0.54552 2451 ft 225 kts 270°
2026-05-04 11:58 51.46372 -0.57203 3034 ft 249 kts 269°
2026-05-04 11:59 51.46400 -0.60061 3804 ft 263 kts 279°
2026-05-04 11:59 51.46972 -0.62880 4814 ft 267 kts 291°
2026-05-04 11:59 51.47574 -0.65702 5817 ft 270 kts 285°
2026-05-04 11:59 51.48095 -0.68607 6803 ft 272 kts 285°
2026-05-04 12:00 51.48621 -0.71550 7753 ft 275 kts 284°
2026-05-04 12:00 51.49149 -0.74526 8707 ft 278 kts 284°
2026-05-04 12:00 51.49679 -0.77530 9658 ft 282 kts 284°
2026-05-04 12:00 51.50219 -0.80587 10395 ft 292 kts 283°
2026-05-04 12:01 51.50791 -0.83853 10728 ft 315 kts 284°
2026-05-04 12:01 51.51397 -0.87308 11358 ft 326 kts 284°
2026-05-04 12:02 51.55189 -1.08887 15794 ft 353 kts 283°
2026-05-04 12:03 51.55853 -1.12707 16500 ft 358 kts 283°
2026-05-04 12:03 51.56519 -1.16574 16912 ft 362 kts 283°
2026-05-04 12:03 51.57192 -1.20475 17013 ft 362 kts 283°